Location: Seattle
(47.6064°N, 122.3308°W)
Time: 22:09:35
(UTC-08:00)

Transit 4A - All Passes

Search period start: 26 November 2020 00:00
Search period end: 06 December 2020 00:00
Orbit: 862 x 982 km, 66.8° (Epoch: 26 November)

Date Brightness Start Highest point End Pass type
(mag) Time Alt. Az. Time Alt. Az. Time Alt. Az.
26 Nov - 08:02:27 10° S 08:08:19 42° ESE 08:14:18 10° NE daylight
26 Nov - 09:48:34 10° WSW 09:54:41 47° NW 10:00:54 10° NNE daylight
26 Nov - 11:38:30 10° WNW 11:42:45 18° NNW 11:47:00 10° NNE daylight
26 Nov - 13:28:51 10° NNW 13:31:57 14° N 13:35:02 10° NE daylight
26 Nov - 15:15:37 10° NNW 15:20:49 25° NNE 15:25:55 10° E daylight
26 Nov - 17:01:45 10° NNW 17:08:11 83° NE 17:14:25 10° SE visible
26 Nov - 18:49:19 10° WNW 18:53:48 21° WSW 18:58:11 10° SSW visible
27 Nov - 06:31:40 10° ESE 06:32:28 10° E 06:33:16 10° E visible
27 Nov - 08:11:19 10° SSW 08:17:30 59° ESE 08:23:49 10° NE daylight
27 Nov - 09:58:24 10° WSW 10:04:14 37° NW 10:10:10 10° NNE daylight
27 Nov - 11:48:53 10° NW 11:52:38 16° NNW 11:56:23 10° NNE daylight
27 Nov - 13:38:30 10° NNW 13:41:54 15° NNE 13:45:18 10° NE daylight
27 Nov - 15:24:53 10° NNW 15:30:31 31° NE 15:36:00 10° E daylight
27 Nov - 17:11:08 10° NW 17:17:30 73° WSW 17:23:40 10° SSE visible
27 Nov - 18:59:48 10° WNW 19:02:45 14° W 19:05:40 10° SW visible
28 Nov - 06:37:42 10° SE 06:41:22 16° ESE 06:45:05 10° ENE visible
28 Nov - 08:20:26 10° SSW 08:26:46 81° ESE 08:33:14 10° NE daylight
28 Nov - 10:08:24 10° W 10:13:53 29° NW 10:19:25 10° NNE daylight
28 Nov - 11:59:15 10° NW 12:02:34 14° N 12:05:53 10° NNE daylight
28 Nov - 13:47:58 10° NNW 13:51:50 16° NNE 13:55:39 10° NE daylight
28 Nov - 15:34:08 10° NNW 15:40:08 39° NE 15:45:57 10° ESE daylight
28 Nov - 17:20:35 10° NW 17:26:44 52° WSW 17:32:42 10° S visible
29 Nov - 06:45:31 10° SSE 06:50:22 24° ESE 06:55:17 10° NE visible
29 Nov - 08:29:46 10° SW 08:36:08 76° NW 08:42:36 10° NNE daylight
29 Nov - 10:18:33 10° W 10:23:36 24° NNW 10:28:41 10° NNE daylight
29 Nov - 12:09:29 10° NNW 12:12:32 13° N 12:15:34 10° NNE daylight
29 Nov - 13:57:20 10° NNW 14:01:42 19° NNE 14:06:01 10° ENE daylight
29 Nov - 15:43:25 10° NNW 15:49:40 51° NE 15:55:43 10° ESE daylight
29 Nov - 17:30:09 10° NW 17:35:53 37° WSW 17:41:29 10° S visible
30 Nov - 06:53:51 10° S 06:59:25 34° ESE 07:05:05 10° NE visible
30 Nov - 08:39:17 10° SW 08:45:33 57° NW 08:51:54 10° NNE daylight
30 Nov - 10:28:50 10° WNW 10:33:23 20° NNW 10:37:58 10° NNE daylight
30 Nov - 12:19:31 10° NNW 12:22:31 13° N 12:25:29 10° NNE daylight
30 Nov - 14:06:38 10° NNW 14:11:30 22° NNE 14:16:19 10° ENE daylight
30 Nov - 15:52:43 10° NNW 15:59:07 69° NE 16:05:18 10° SE daylight
30 Nov - 17:39:54 10° NW 17:44:58 26° WSW 17:49:55 10° SSW visible
01 Dec - 07:02:33 10° S 07:08:34 47° ESE 07:14:41 10° NE visible
01 Dec - 08:49:01 10° WSW 08:55:04 43° NW 09:01:11 10° NNE daylight
01 Dec - 10:39:11 10° WNW 10:43:14 17° NNW 10:47:18 10° NNE daylight
01 Dec - 12:29:17 10° NNW 12:32:29 14° N 12:35:38 10° NE daylight
01 Dec - 14:15:54 10° NNW 14:21:15 27° NE 14:26:29 10° E daylight
01 Dec - 16:02:04 10° NW 16:08:29 89° WSW 16:14:41 10° SSE daylight
01 Dec - 17:49:57 10° WNW 17:53:58 18° WSW 17:57:54 10° SW visible
02 Dec - 05:30:13 10° ESE 05:32:37 12° E 05:35:00 10° ENE visible
02 Dec - 07:11:30 10° SSW 07:17:47 66° ESE 07:24:10 10° NE daylight
02 Dec - 08:58:54 10° WSW 09:04:39 34° NW 09:10:26 10° NNE daylight
02 Dec - 10:49:34 10° NW 10:53:09 15° NNW 10:56:43 10° NNE daylight
02 Dec - 12:38:52 10° NNW 12:42:25 15° NNE 12:45:57 10° NE daylight
02 Dec - 14:25:10 10° NNW 14:30:55 33° NE 14:36:31 10° ESE daylight
02 Dec - 16:11:28 10° NW 16:17:46 65° WSW 16:23:51 10° SSE daylight
02 Dec - 18:00:55 10° W 18:02:52 12° W 18:04:50 10° WSW visible
03 Dec - 05:37:21 10° SE 05:41:32 19° ESE 05:45:46 10° ENE visible
03 Dec - 07:20:42 10° SSW 07:27:04 90° SE 07:33:33 10° NE daylight
03 Dec - 09:08:58 10° W 09:14:19 27° NW 09:19:42 10° NNE daylight
03 Dec - 10:59:54 10° NW 11:03:05 14° N 11:06:16 10° NNE daylight
03 Dec - 12:48:18 10° NNW 12:52:19 17° NNE 12:56:19 10° ENE daylight
03 Dec - 14:34:26 10° NNW 14:40:30 43° NE 14:46:24 10° ESE daylight
03 Dec - 16:20:58 10° NW 16:26:58 46° WSW 16:32:48 10° S daylight
04 Dec - 05:45:24 10° SSE 05:50:33 27° ESE 05:55:47 10° NE visible
04 Dec - 07:30:06 10° SW 07:36:27 68° NW 07:42:53 10° NNE daylight
04 Dec - 09:19:10 10° W 09:24:03 22° NNW 09:28:57 10° NNE daylight
04 Dec - 11:10:04 10° NNW 11:13:03 13° N 11:16:02 10° NNE daylight
04 Dec - 12:57:38 10° NNW 13:02:11 20° NNE 13:06:39 10° ENE daylight
04 Dec - 14:43:43 10° NNW 14:50:00 57° NE 14:56:06 10° SE daylight
04 Dec - 16:30:35 10° NW 16:36:05 32° WSW 16:41:28 10° S daylight
05 Dec - 05:53:53 10° S 05:59:38 38° ESE 06:05:30 10° NE visible
05 Dec - 07:39:42 10° WSW 07:45:54 51° NW 07:52:11 10° NNE daylight
05 Dec - 09:29:29 10° WNW 09:33:52 19° NNW 09:38:15 10° NNE daylight
05 Dec - 11:20:01 10° NNW 11:23:01 13° N 11:26:02 10° NNE daylight
05 Dec - 13:06:55 10° NNW 13:11:58 24° NNE 13:16:54 10° E daylight
05 Dec - 14:53:02 10° NNW 14:59:26 76° NE 15:05:37 10° SE daylight
05 Dec - 16:40:24 10° WNW 16:45:09 23° WSW 16:49:47 10° SSW daylight
